Regional Weather Roundup
Issued by NWS Sterling, VA

Home | Current Version | Previous Version | Text Only | Print | Product List | Glossary On
Versions: 1 2 3 4 5 6 7 8 9 10 11 12 13 14 15 16 17 18 19 20 21 22 23 24 25 26 27 28 29 30 31 32 33 34 35 36 37 38 39 40 41 42 43 44 45 46 47 48 49 50
000
ASUS41 KLWX 180810
RWRLWX

REGIONAL WEATHER ROUNDUP
NATIONAL WEATHER SERVICE BALTIMORE MD/WASHINGTON DC
400 AM EDT SAT APR 18 2015

Note: "FAIR" indicates few or no clouds below 12,000 feet
with no significant weather and/or obstructions to visibility.
 TC=TEMPERATURE CELSIUS

 * =Non NWS site. Station does not report precipitation (e.g. rain,
    snow, etc.), thunder, or fog.

DCZ001-MDZ009-015-VAZ040>042-051-053>054-180900-
WASHINGTON METRO

CITY           SKY/WX    TMP DP  RH WIND       PRES   REMARKS
WASHINGTON NAT MOCLDY    63  57  81 CALM      29.98S
DULLES         MOCLDY    54  51  90 CALM      29.99S
ANDREWS AFB    PTCLDY    56  54  92 N6        29.97S
FT BELVOIR     PTCLDY    59  56  91 NW1       29.98S
QUANTICO       PTCLDY    64  55  72 N5        29.98F
COLLEGE PARK*  PTCLDY    55  55 100 CALM      29.98S
LEESBURG*      MOCLDY    55  54  94 CALM      30.00S
MANASSAS*      PTCLDY    54  54 100 CALM      29.99S
GAITHERSBURG*  PTCLDY    54  48  82 CALM      30.03S

$$

MDZ006>007-011-014-180900-
BALTIMORE METRO

CITY           SKY/WX    TMP DP  RH WIND       PRES   REMARKS
BWI AIRPORT    PTCLDY    55  53  93 CALM      29.97F
MD SCIENCE CTR   N/A     63  52  67 MISG      29.97F
MARTIN STATE   PTCLDY    55  55 100 CALM      29.99S
ANNAPOLIS      PTCLDY    56  55  97 NW3       29.96F
FORT MEADE*    PTCLDY    52  50  93 CALM      30.00F

$$

MDZ012-015-019>023-180900-
MARYLAND EASTERN SHORE

CITY           SKY/WX    TMP DP  RH WIND       PRES   REMARKS
OCEAN CITY     CLOUDY    56  55  97 CALM      29.96F FOG
SALISBURY      FOG       57  56  96 CALM      29.95F VSB 1/4
BAY BRIDGE AP*   N/A     55  55 100 N3        29.97F FOG
CAMBRIDGE*     CLOUDY    59  55  88 CALM      29.96S VSB 1/2
EASTON*        FOG       59  59 100 CALM      30.00F VSB 1/2

$$

MDZ017>025-180900-
SOUTHERN MARYLAND

CITY           SKY/WX    TMP DP  RH WIND       PRES   REMARKS
PATUXENT RIVER MOCLDY    56  54  93 CALM      29.96S
ST INIGOES     MOCLDY    58  56  93 CALM      29.95S
LEONARDTOWN*     N/A     59  55  88 CALM      29.98  VSB 1

$$

MDZ003>005-180900-
NORTH CENTRAL MARYLAND

CITY           SKY/WX    TMP DP  RH WIND       PRES   REMARKS
FREDERICK*     FOG       50  45  81 CALM      30.02S VSB 1
HAGERSTOWN APT CLEAR     56  49  77 NE3       30.00F
WESTMINSTER*   PTCLDY    57  52  82 CALM      29.99F

$$

MDZ501>502-180900-
WESTERN MARYLAND

CITY           SKY/WX    TMP DP  RH WIND       PRES   REMARKS
OAKLAND*       PTCLDY    52 N/A N/A CALM      30.06S
CUMBERLAND*    PTCLDY    52  50  93 NW3       30.05F

$$

VAZ025>031-180900-
SHENANDOAH VALLEY

CITY           SKY/WX    TMP DP  RH WIND       PRES   REMARKS
WINCHESTER*    PTCLDY    54  50  87 CALM      30.00S
FRONT ROYAL*   NOT AVBL
LURAY*         FAIR      54  54 100 CALM      30.01S
NEW MARKET*    NOT AVBL
STAUNTON*      CLOUDY    52  50  93 SW3       30.03S FOG
WAYNESBORO*    FAIR      54  53  98 CALM      30.02F

$$

WVZ021-048>050-054>055-180900-
EASTERN WEST VIRGINIA PANHANDLE

CITY           SKY/WX    TMP DP  RH WIND       PRES   REMARKS
MARTINSBURG    PTCLDY    54  49  83 CALM      30.00S
PETERSBURG*    PTCLDY    46  43  89 CALM      30.04  FOG

$$

VAZ036>039-050-180900-
CENTRAL FOOTHILLS

CITY           SKY/WX    TMP DP  RH WIND       PRES   REMARKS
CHARLOTTESVILL FOG       59  58  96 CALM      29.98F VSB 3/4
CULPEPER*        N/A     61  61 100 CALM      29.99S FOG
ORANGE*        MOCLDY    59  57  94 CALM      30.00S
GORDONSVILLE*  FAIR      54  53  99 CALM      29.98S
WARRENTON*     FOG       56  56 100 CALM      29.98F VSB 1/2

$$

VAZ055>057-180900-
NORTH AND CENTRAL PIEDMONT

CITY           SKY/WX    TMP DP  RH WIND       PRES   REMARKS
FREDERICKSBRG* MOCLDY    62  62 100 NW3       29.96F
STAFFORD*      MOCLDY    62  32  32 N5        30.01F

$$

NCZ024-NYZ072-PAZ021-071-VAZ022-071-180900-
OTHER REGIONAL OBSERVATIONS

CITY           SKY/WX    TMP DP  RH WIND       PRES   REMARKS
NEW YORK CITY  CLEAR     60  44  55 CALM      29.99S
PHILADELPHIA   MOCLDY    58  53  84 E3        29.98S
PITTSBURGH     PTCLDY    50  45  83 CALM      30.02S
ROANOKE        CLEAR     58  54  86 NW3       30.02S
RICHMOND       CLOUDY    62  60  93 CALM      29.96F
RALEIGH        CLOUDY    63  61  93 CALM      29.97F

$$

ANZ530>537-180900-
MARINE OBSERVATIONS

STATION/POSITION TIME  TEMP    WIND        PRES
                       AIR SEA DIR/SP/G
                 (UTC) (F)     (DEG/KT/KT) (MB)
THOMAS PT LIGHT  0800   59 52  360/  6/  6 1015.3F
BALT KEY BRIDGE  0700   61     260/  3/  3 1015.0F
COVE POINT       0700   60      CALM  /  1 1014.4F
LEWISETTA        0700   61 59              1014.2F
SOLOMONS ISLAND  0700      54                N/A
PINEY POINT      0700          340/  4/  5   N/A

$$




USA.gov is the U.S. government's official web portal to all federal, state and local government web resources and services.